• In Hungary
  • List of Countries
  • For 7 days
  • Water Temperature
  • Satellite Maps
  • Weather Map
  • News
  • Weather Widgets
  • user-avatar
    Login

    Hourly Weather Bolshoy Ermuchash

    Today, 23 July, Monday

    Time Temperature Precipitation Wind Pressure Humidity
    00:00 +13°C° 0 mm 3 mps 750 mmHg 89%
    01:00 +12°C° 0 mm 3 mps 750 mmHg 89%
    02:00 +12°C° 0 mm 3 mps 750 mmHg 90%
    03:00 +12°C° 0 mm 3 mps 751 mmHg 92%
    04:00 +13°C° 0 mm 3 mps 751 mmHg 89%
    05:00 +14°C° 0 mm 3 mps 751 mmHg 85%
    06:00 +15°C° 0 mm 4 mps 751 mmHg 81%
    07:00 +17°C° 0 mm 4 mps 751 mmHg 76%
    08:00 +19°C° 0 mm 4 mps 751 mmHg 72%
    09:00 +21°C° 0 mm 4 mps 751 mmHg 67%
    10:00 +22°C° 0 mm 4 mps 751 mmHg 64%
    11:00 +23°C° 0 mm 4 mps 751 mmHg 60%
    12:00 +23°C° 0 mm 5 mps 751 mmHg 56%
    13:00 +25°C° 0 mm 5 mps 751 mmHg 56%
    14:00 +25°C° 0 mm 5 mps 751 mmHg 57%
    15:00 +25°C° 0 mm 4 mps 751 mmHg 57%
    16:00 +23°C° 0 mm 4 mps 751 mmHg 62%
    17:00 +22°C° 0 mm 3 mps 751 mmHg 67%
    18:00 +21°C° 0 mm 3 mps 751 mmHg 72%
    19:00 +20°C° 0 mm 2 mps 751 mmHg 76%
    20:00 +18°C° 0 mm 2 mps 751 mmHg 80%
    21:00 +17°C° 0 mm 2 mps 752 mmHg 85%
    22:00 +17°C° 0 mm 2 mps 752 mmHg 85%
    23:00 +16°C° 0 mm 2 mps 752 mmHg 86%

    Tomorrow, 24 July, Tuesday

    Time Temperature Precipitation Wind Pressure Humidity
    00:00 +16°C° 0 mm 2 mps 752 mmHg 86%
    01:00 +16°C° 0 mm 2 mps 752 mmHg 87%
    02:00 +15°C° 0 mm 2 mps 752 mmHg 88%
    03:00 +15°C° 0 mm 2 mps 752 mmHg 89%
    04:00 +16°C° 0 mm 2 mps 753 mmHg 87%
    05:00 +16°C° 0 mm 3 mps 753 mmHg 85%
    06:00 +17°C° 0 mm 3 mps 753 mmHg 82%
    07:00 +18°C° 0 mm 3 mps 753 mmHg 78%
    08:00 +20°C° 0 mm 3 mps 753 mmHg 73%
    09:00 +21°C° 0 mm 3 mps 753 mmHg 69%
    10:00 +22°C° 0 mm 3 mps 753 mmHg 66%
    11:00 +24°C° 0 mm 3 mps 753 mmHg 63%
    12:00 +24°C° 0 mm 3 mps 753 mmHg 60%
    13:00 +25°C° 0 mm 3 mps 753 mmHg 60%
    14:00 +25°C° 0 mm 3 mps 753 mmHg 60%
    15:00 +26°C° 0 mm 3 mps 753 mmHg 60%
    16:00 +25°C° 0 mm 2 mps 753 mmHg 64%
    17:00 +25°C° 0 mm 2 mps 753 mmHg 67%
    18:00 +25°C° 0 mm 2 mps 753 mmHg 71%
    19:00 +23°C° 0 mm 2 mps 753 mmHg 75%
    20:00 +21°C° 0 mm 2 mps 753 mmHg 78%
    21:00 +19°C° 0 mm 2 mps 753 mmHg 82%
    22:00 +19°C° 0 mm 2 mps 753 mmHg 84%
    23:00 +18°C° 0 mm 2 mps 753 mmHg 85%

    Day after tomorrow, 25 July, Wednesday

    Time Temperature Precipitation Wind Pressure Humidity
    00:00 +18°C° 0 mm 2 mps 754 mmHg 87%
    01:00 +17°C° 0 mm 2 mps 754 mmHg 88%
    02:00 +17°C° 0 mm 2 mps 754 mmHg 89%
    03:00 +16°C° 0 mm 2 mps 754 mmHg 90%
    04:00 +17°C° 0 mm 2 mps 754 mmHg 87%
    05:00 +18°C° 0 mm 2 mps 754 mmHg 85%
    06:00 +19°C° 0 mm 2 mps 755 mmHg 82%
    07:00 +21°C° 0 mm 2 mps 755 mmHg 77%
    08:00 +24°C° 0 mm 3 mps 755 mmHg 71%
    09:00 +25°C° 0 mm 3 mps 755 mmHg 66%
    10:00 +27°C° 0 mm 3 mps 755 mmHg 62%
    11:00 +28°C° 0 mm 3 mps 755 mmHg 58%
    12:00 +29°C° 0 mm 3 mps 755 mmHg 54%
    13:00 +29°C° 0 mm 3 mps 755 mmHg 53%
    14:00 +29°C° 0 mm 3 mps 755 mmHg 53%
    15:00 +29°C° 0 mm 3 mps 755 mmHg 52%
    16:00 +29°C° 0 mm 3 mps 755 mmHg 57%
    17:00 +28°C° 0 mm 2 mps 755 mmHg 62%
    18:00 +27°C° 0 mm 2 mps 754 mmHg 67%
    19:00 +25°C° 0 mm 2 mps 755 mmHg 70%
    20:00 +24°C° 0 mm 2 mps 755 mmHg 73%
    21:00 +21°C° 0 mm 2 mps 755 mmHg 76%
    22:00 +21°C° 0 mm 2 mps 755 mmHg 77%
    23:00 +20°C° 0 mm 2 mps 755 mmHg 78%

    26 July, Thursday

    Time Temperature Precipitation Wind Pressure Humidity
    00:00 +20°C° 0 mm 2 mps 755 mmHg 79%
    01:00 +19°C° 0 mm 2 mps 755 mmHg 80%
    02:00 +19°C° 0 mm 2 mps 755 mmHg 81%
    03:00 +19°C° 0 mm 2 mps 756 mmHg 82%
    04:00 +19°C° 0 mm 2 mps 756 mmHg 81%
    05:00 +20°C° 0 mm 2 mps 756 mmHg 80%
    06:00 +21°C° 0 mm 2 mps 756 mmHg 79%
    07:00 +24°C° 0 mm 2 mps 756 mmHg 73%
    08:00 +25°C° 0 mm 2 mps 756 mmHg 68%
    09:00 +27°C° 0 mm 2 mps 756 mmHg 63%
    10:00 +28°C° 0 mm 2 mps 756 mmHg 58%
    11:00 +29°C° 0 mm 3 mps 756 mmHg 54%
    12:00 +30°C° 0 mm 3 mps 756 mmHg 50%
    13:00 +30°C° 0 mm 3 mps 756 mmHg 49%
    14:00 +30°C° 0 mm 3 mps 756 mmHg 49%
    15:00 +30°C° 0 mm 3 mps 756 mmHg 49%
    16:00 +29°C° 0 mm 2 mps 756 mmHg 54%
    17:00 +29°C° 0 mm 2 mps 756 mmHg 58%
    18:00 +28°C° 0 mm 1 mps 756 mmHg 63%
    19:00 +26°C° 0 mm 1 mps 756 mmHg 67%
    20:00 +25°C° 0 mm 1 mps 756 mmHg 71%
    21:00 +23°C° 0 mm 1 mps 756 mmHg 74%
    22:00 +22°C° 0 mm 1 mps 756 mmHg 75%
    23:00 +22°C° 0 mm 1 mps 756 mmHg 76%

    27 July, Friday

    Time Temperature Precipitation Wind Pressure Humidity
    00:00 +21°C° 0 mm 1 mps 756 mmHg 78%
    01:00 +21°C° 0 mm 1 mps 756 mmHg 78%
    02:00 +21°C° 0 mm 1 mps 756 mmHg 79%
    03:00 +20°C° 0 mm 1 mps 756 mmHg 80%
    04:00 +21°C° 0 mm 1 mps 756 mmHg 78%
    05:00 +22°C° 0 mm 1 mps 756 mmHg 77%
    06:00 +23°C° 0 mm 1 mps 756 mmHg 75%
    07:00 +24°C° 0 mm 1 mps 756 mmHg 72%
    08:00 +25°C° 0 mm 1 mps 756 mmHg 70%
    09:00 +26°C° 0 mm 1 mps 756 mmHg 67%
    10:00 +27°C° 0 mm 2 mps 756 mmHg 61%
    11:00 +28°C° 0 mm 2 mps 755 mmHg 55%
    12:00 +30°C° 0 mm 2 mps 755 mmHg 49%
    13:00 +30°C° 0 mm 2 mps 755 mmHg 48%
    14:00 +30°C° 0 mm 2 mps 755 mmHg 47%
    15:00 +30°C° 0 mm 2 mps 755 mmHg 46%
    16:00 +29°C° 0 mm 2 mps 755 mmHg 51%
    17:00 +29°C° 0 mm 2 mps 754 mmHg 57%
    18:00 +28°C° 0 mm 1 mps 754 mmHg 62%
    19:00 +26°C° 0 mm 1 mps 754 mmHg 65%
    20:00 +24°C° 0 mm 1 mps 754 mmHg 69%
    21:00 +23°C° 0 mm 1 mps 754 mmHg 72%
    22:00 +22°C° 0 mm 1 mps 754 mmHg 74%
    23:00 +22°C° 0 mm 1 mps 754 mmHg 75%

    28 July, Saturday

    Time Temperature Precipitation Wind Pressure Humidity
    00:00 +21°C° 0 mm 1 mps 754 mmHg 77%
    01:00 +21°C° 0 mm 1 mps 754 mmHg 78%
    02:00 +20°C° 0 mm 1 mps 753 mmHg 78%
    03:00 +20°C° 0 mm 1 mps 753 mmHg 79%
    04:00 +21°C° 0 mm 1 mps 753 mmHg 78%
    05:00 +22°C° 0 mm 1 mps 753 mmHg 76%
    06:00 +23°C° 0 mm 1 mps 753 mmHg 75%
    07:00 +25°C° 0 mm 1 mps 753 mmHg 70%
    08:00 +26°C° 0 mm 1 mps 753 mmHg 65%
    09:00 +27°C° 0 mm 1 mps 753 mmHg 61%
    10:00 +28°C° 0 mm 1 mps 753 mmHg 56%
    11:00 +29°C° 0 mm 2 mps 752 mmHg 51%
    12:00 +30°C° 0 mm 2 mps 752 mmHg 46%
    13:00 +30°C° 0 mm 2 mps 752 mmHg 47%
    14:00 +30°C° 0 mm 2 mps 752 mmHg 49%
    15:00 +29°C° 0 mm 1 mps 751 mmHg 50%
    16:00 +29°C° 0 mm 1 mps 751 mmHg 55%
    17:00 +28°C° 0 mm 1 mps 751 mmHg 60%
    18:00 +27°C° 0 mm 1 mps 751 mmHg 64%
    19:00 +25°C° 0 mm 1 mps 751 mmHg 70%
    20:00 +24°C° 0 mm 2 mps 751 mmHg 75%
    21:00 +21°C° 0 mm 2 mps 751 mmHg 81%
    22:00 +20°C° 0.3 mm 3 mps 751 mmHg 85%
    23:00 +20°C° 0.3 mm 3 mps 751 mmHg 89%
    Show more